Location: Bacharowice
(49.9333°N, 19.5833°E)
Time: 13:34:02
(UTC+00:00)

SOZ - Pass Details

Date: 06 October 2021
Orbit: 306 x 16685 km, 52.1° (Epoch: 27 October)

Event Time Altitude Azimuth Distance (km) Brightness Sun altitude
Rises 23:28:26 0° 205° (SSW) 22,080 13.0 -43.5°
Enters shadow 23:55:37 - 207° (SSW) 20,161 12.7 -41.7°
Exits shadow 00:58:04 37° 208° (SSW) 10,454 11.1 -35.5°
Maximum altitude 01:22:39 67° 146° (SE) 4,352 9.6 -32.4°
Drops below altitude 10° 01:34:38 10° 67° (ENE) 4,103 10.6 -30.8°
Sets 01:36:29 0° 64° (ENE) 4,567 11.1 -30.6°
